Location: Coopersdale
(40.3556°N, 78.9372°W)
Time: 09:13:57
(UTC+00:00)

Envisat - Pass Details

Date: 01 December 2020
Orbit: 764 x 766 km, 98.1° (Epoch: 15 January)

Event Time Altitude Azimuth Distance (km) Brightness Sun altitude
Rises 23:14:02 0° 197° (SSW) 3,218 6.7 -15.7°
Reaches altitude 10° 23:16:41 10° 210° (SSW) 2,297 6.1 -16.1°
Maximum altitude 23:20:51 26° 265° (W) 1,489 5.3 -16.9°
Drops below altitude 10° 23:25:04 10° 321° (NW) 2,310 5.8 -17.7°
Sets 23:27:46 0° 335° (NNW) 3,241 6.4 -18.2°
